Ortonville, MN

8:08 AM CDT on September 24, 2017 (GMT -0500)
Ortonville Municipal-Martinson

Weather History for KVVV - March, 2013

Change the Weather History Date:

Saturday, March 16, 2013

  Actual Average (KAQP) Record (KAQP)
Temperature  
Mean Temperature 10 °F -  
Max Temperature 19 °F 33 °F 80 °F (2012)
Min Temperature 1 °F 16 °F -9 °F (2002)
Degree Days  
Heating Degree Days 55    
Moisture  
Dew Point 4 °F    
Average Humidity 80    
Maximum Humidity 93    
Minimum Humidity 73    
Precipitation  
Precipitation 0.00 in - - ()
Sea Level Pressure  
Sea Level Pressure 30.18 in    
Wind  
Wind Speed 14 mph (NNW)    
Max Wind Speed 20 mph    
Max Gust Speed 26 mph    
Visibility 8 miles    
Events Snow    
Averages and records for this station are not official NWS values.
T = Trace of Precipitation, MM = Missing Value Source: NWS Daily Summary

Daily Weather History Graph

Daily Weather History Graph

Search for Another Location

Airport or City:

Trip Planner

Search our weather history database for the weather conditions in past years. The results will help you decide how hot, cold, wet, or windy it might be!

Date:

Astronomy

Mar. 16, 2013 Rise Set
Actual Time 7:35 AM CDT 7:33 PM CDT
Civil Twilight 7:06 AM CDT 8:02 PM CDT
Nautical Twilight 6:32 AM CDT 8:37 PM CDT
Astronomical Twilight 5:57 AM CDT 9:12 PM CDT
Moon 9:52 AM CDT (3/16) 12:00 AM CDT (3/16)
Length of Visible Light 12h 56m
Length of Day
11h 57m
Waxing Crescent, 23% of the Moon is Illuminated
Mar 16
Waxing Crescent
Mar 19
First Quarter
Mar 27
Full
Apr 2
Last Quarter
Apr 10
New

Hourly Weather History & Observations

Time (CDT) Temp. Windchill Dew Point Humidity Pressure Visibility Wind Dir Wind Speed Gust Speed Precip Events Conditions
12:13 AM 19.4 °F 4.1 °F 15.8 °F 86% 29.99 in 2.5 mi NNW 18.4 mph 21.9 mph N/A   Overcast
12:34 AM 17.6 °F 1.7 °F 15.8 °F 93% 29.99 in 3.0 mi NNW 18.4 mph 24.2 mph N/A   Overcast
12:54 AM 17.6 °F 2.7 °F 15.8 °F 93% 30.00 in 3.0 mi NNW 16.1 mph 21.9 mph N/A   Overcast
1:14 AM 17.6 °F 3.7 °F 14.0 °F 86% 30.00 in 2.5 mi NNW 13.8 mph 17.3 mph N/A Snow Light Snow
1:34 AM 15.8 °F 1.4 °F 12.2 °F 86% 30.01 in 4.0 mi NW 13.8 mph 20.7 mph N/A   Overcast
1:53 AM 15.8 °F 1.4 °F 12.2 °F 86% 30.01 in 3.0 mi NNW 13.8 mph - N/A Snow Light Snow
2:14 AM 15.8 °F 0.9 °F 12.2 °F 86% 30.02 in 3.0 mi NNW 15.0 mph - N/A Snow Light Snow
2:34 AM 15.8 °F 0.9 °F 10.4 °F 79% 30.03 in 4.0 mi NNW 15.0 mph 26.5 mph N/A Snow Light Snow
2:53 AM 14.0 °F -1.4 °F 10.4 °F 86% 30.04 in 4.0 mi NNW 15.0 mph - N/A Snow Light Snow
3:14 AM 14.0 °F -2.5 °F 10.4 °F 86% 30.05 in 7.0 mi NNW 17.3 mph 21.9 mph N/A Snow Light Snow
3:33 AM 14.0 °F -0.2 °F 10.4 °F 86% 30.07 in 5.0 mi NNW 12.7 mph 20.7 mph N/A Snow Light Snow
3:54 AM 12.2 °F -4.3 °F 8.6 °F 85% 30.08 in 4.0 mi NNW 16.1 mph 21.9 mph N/A Snow Light Snow
4:14 AM 12.2 °F -4.3 °F 8.6 °F 85% 30.08 in 2.5 mi NNW 16.1 mph 24.2 mph N/A Snow Light Snow
4:33 AM 10.4 °F -6.0 °F 6.8 °F 85% 30.09 in 3.0 mi NNW 15.0 mph - N/A Snow Light Snow
4:54 AM 8.6 °F -8.3 °F 5.0 °F 85% 30.10 in 4.0 mi NNW 15.0 mph 19.6 mph N/A Snow Light Snow
5:13 AM 8.6 °F -7.7 °F 3.2 °F 79% 30.11 in 3.0 mi NNW 13.8 mph 25.3 mph N/A Snow Light Snow
5:34 AM 6.8 °F -12.9 °F 3.2 °F 85% 30.11 in 3.0 mi NNW 19.6 mph 24.2 mph N/A Snow Light Snow
5:54 AM 6.8 °F -11.8 °F 1.4 °F 79% 30.12 in 4.0 mi North 17.3 mph 23.0 mph N/A Snow Light Snow
6:13 AM 5.0 °F -12.3 °F 1.4 °F 85% 30.14 in 10.0 mi NNW 13.8 mph - N/A   Mostly Cloudy
6:34 AM 5.0 °F -10.0 °F -0.4 °F 78% 30.16 in 10.0 mi NW 10.4 mph 19.6 mph N/A Snow Light Snow
6:54 AM 3.2 °F -12.2 °F -0.4 °F 85% 30.17 in 10.0 mi NW 10.4 mph 18.4 mph N/A   Clear
7:14 AM 3.2 °F -13.9 °F -0.4 °F 85% 30.18 in 10.0 mi NW 12.7 mph 16.1 mph N/A   Clear
7:34 AM 1.4 °F -16.9 °F -2.2 °F 85% 30.18 in 10.0 mi NW 13.8 mph 18.4 mph N/A   Clear
7:54 AM 1.4 °F -15.3 °F -2.2 °F 85% 30.19 in 10.0 mi NW 11.5 mph - N/A   Clear
8:14 AM 1.4 °F -14.5 °F -2.2 °F 85% 30.19 in 10.0 mi NW 10.4 mph - N/A   Clear
8:34 AM 1.4 °F -16.9 °F -2.2 °F 85% 30.19 in 10.0 mi NNW 13.8 mph - N/A   Clear
8:53 AM 1.4 °F -17.6 °F -2.2 °F 85% 30.20 in 10.0 mi NNW 15.0 mph - N/A   Clear
9:14 AM 1.4 °F -18.2 °F -2.2 °F 85% 30.21 in 10.0 mi NNW 16.1 mph 19.6 mph N/A   Clear
9:34 AM 1.4 °F -18.8 °F -2.2 °F 85% 30.21 in 10.0 mi NNW 17.3 mph - N/A   Clear
9:53 AM 3.2 °F -15.3 °F -2.2 °F 78% 30.21 in 10.0 mi NNW 15.0 mph - N/A   Clear
10:14 AM 3.2 °F -13.1 °F -0.4 °F 85% 30.21 in 10.0 mi NNW 11.5 mph - N/A   Clear
10:33 AM 5.0 °F -10.8 °F -0.4 °F 78% 30.21 in 10.0 mi NNW 11.5 mph - N/A   Clear
10:54 AM 5.0 °F -9.1 °F -0.4 °F 78% 30.21 in 10.0 mi NNW 9.2 mph - N/A   Clear
11:14 AM 5.0 °F -9.1 °F -0.4 °F 78% 30.22 in 10.0 mi NW 9.2 mph - N/A   Clear
11:33 AM 6.8 °F -7.8 °F 1.4 °F 79% 30.22 in 10.0 mi NW 10.4 mph - N/A   Clear
11:54 AM 6.8 °F -6.9 °F 1.4 °F 79% 30.23 in 10.0 mi NW 9.2 mph - N/A   Clear
12:14 PM 6.8 °F -5.9 °F 1.4 °F 79% 30.23 in 10.0 mi NNW 8.1 mph - N/A   Clear
12:33 PM 8.6 °F -4.7 °F 1.4 °F 73% 30.23 in 10.0 mi NNW 9.2 mph - N/A   Clear
12:54 PM 10.4 °F -3.3 °F 3.2 °F 73% 30.23 in 10.0 mi North 10.4 mph - N/A   Clear
1:13 PM 10.4 °F -4.1 °F 3.2 °F 73% 30.23 in 10.0 mi NNW 11.5 mph - N/A   Clear
1:34 PM 10.4 °F -4.8 °F 5.0 °F 79% 30.23 in 10.0 mi North 12.7 mph - N/A   Clear
1:54 PM 10.4 °F -4.1 °F 5.0 °F 79% 30.21 in 10.0 mi NNW 11.5 mph - N/A   Scattered Clouds
2:13 PM 10.4 °F -4.8 °F 6.8 °F 85% 30.21 in 10.0 mi NNW 12.7 mph - N/A Snow Light Snow
2:34 PM 12.2 °F -3.1 °F 6.8 °F 79% 30.21 in 7.0 mi North 13.8 mph - N/A Snow Light Snow
2:54 PM 12.2 °F -2.5 °F 5.0 °F 73% 30.20 in 10.0 mi NNW 12.7 mph - N/A   Mostly Cloudy
3:13 PM 12.2 °F -2.5 °F 5.0 °F 73% 30.20 in 10.0 mi North 12.7 mph - N/A   Scattered Clouds
3:34 PM 12.2 °F -1.0 °F 5.0 °F 73% 30.20 in 10.0 mi NNW 10.4 mph - N/A   Clear
3:54 PM 12.2 °F -1.8 °F 5.0 °F 73% 30.19 in 10.0 mi NNW 11.5 mph - N/A   Clear
4:13 PM 10.4 °F -4.1 °F 5.0 °F 79% 30.19 in 10.0 mi NNW 11.5 mph - N/A   Scattered Clouds
4:34 PM 12.2 °F -2.5 °F 5.0 °F 73% 30.20 in 10.0 mi NNW 12.7 mph - N/A   Scattered Clouds
4:54 PM 12.2 °F -3.1 °F 5.0 °F 73% 30.21 in 10.0 mi NNW 13.8 mph - N/A   Scattered Clouds
5:13 PM 12.2 °F -2.5 °F 5.0 °F 73% 30.20 in 10.0 mi NNW 12.7 mph - N/A   Mostly Cloudy
5:34 PM 12.2 °F -1.0 °F 5.0 °F 73% 30.20 in 10.0 mi NNW 10.4 mph - N/A   Mostly Cloudy
5:54 PM 10.4 °F -5.4 °F 3.2 °F 73% 30.20 in 10.0 mi North 13.8 mph - N/A   Scattered Clouds
6:13 PM 10.4 °F -4.1 °F 3.2 °F 73% 30.20 in 10.0 mi NNW 11.5 mph - N/A   Clear
6:34 PM 10.4 °F -2.4 °F 3.2 °F 73% 30.21 in 10.0 mi North 9.2 mph - N/A   Clear
6:53 PM 10.4 °F -2.4 °F 3.2 °F 73% 30.23 in 10.0 mi NNW 9.2 mph - N/A   Clear
7:14 PM 8.6 °F -4.7 °F 3.2 °F 79% 30.22 in 10.0 mi NNW 9.2 mph - N/A   Clear
7:34 PM 8.6 °F -2.6 °F 3.2 °F 79% 30.23 in 10.0 mi North 6.9 mph - N/A   Clear
7:53 PM 8.6 °F -1.3 °F 1.4 °F 73% 30.25 in 10.0 mi NNW 5.8 mph - N/A   Clear
8:14 PM 8.6 °F -1.3 °F 1.4 °F 73% 30.25 in 10.0 mi NNW 5.8 mph - N/A   Clear
8:33 PM 8.6 °F -3.7 °F 1.4 °F 73% 30.25 in 10.0 mi North 8.1 mph - N/A   Clear
8:54 PM 6.8 °F -4.8 °F 1.4 °F 79% 30.26 in 10.0 mi NNW 6.9 mph - N/A   Clear
9:14 PM 6.8 °F -5.9 °F 1.4 °F 79% 30.26 in 10.0 mi NNW 8.1 mph - N/A   Clear
9:33 PM 6.8 °F -5.9 °F 1.4 °F 79% 30.26 in 10.0 mi North 8.1 mph - N/A   Clear
9:54 PM 5.0 °F -6.9 °F -0.4 °F 78% 30.26 in 10.0 mi North 6.9 mph - N/A   Clear
10:14 PM 5.0 °F -5.6 °F -0.4 °F 78% 30.27 in 10.0 mi North 5.8 mph - N/A   Clear
10:34 PM 5.0 °F -6.9 °F -0.4 °F 78% 30.27 in 10.0 mi North 6.9 mph - N/A   Clear
10:54 PM 3.2 °F -9.1 °F -0.4 °F 85% 30.27 in 10.0 mi North 6.9 mph - N/A   Clear
11:13 PM 3.2 °F -11.3 °F -0.4 °F 85% 30.27 in 10.0 mi North 9.2 mph - N/A   Clear
11:34 PM 3.2 °F -10.3 °F -0.4 °F 85% 30.26 in 10.0 mi North 8.1 mph - N/A   Clear
11:53 PM 3.2 °F -10.3 °F -0.4 °F 85% 30.26 in 10.0 mi North 8.1 mph - N/A   Clear